OE3AOG Weather Reports


time (UTC)temp
C
wind
direction
speed
KPH
gust
KPH
rain 1hr
cm
rain 24hr
cm
rain mn
cm
humidity
%
barometer
mb
20260507185518 11 167 4.8 8.0 0.20 0.99 0.99 91 1014.0
20260507184526 11 158 3.2 8.0 0.23 0.97 0.97 91 1013.7
20260507183519 11 138 1.6 6.4 0.28 0.94 0.94 91 1013.5
20260507182527 11 145 3.2 8.0 0.36 0.91 0.91 91 1013.6
20260507181527 11 140 1.6 4.8 0.38 0.89 0.89 90 1013.4
20260507180519 11 136 1.6 4.8 0.36 0.84 0.84 91 1013.3
20260507175527 11 123 1.6 4.8 0.38 0.81 0.81 91 1013.4
20260507174519 11 154 1.6 4.8 0.41 0.74 0.74 90 1013.5
20260507173526 12 166 4.8 14.5 0.36 0.66 0.66 90 1013.3
20260507172518 12 178 8.0 19.3 0.28 0.56 0.56 88 1013.5
20260507171527 12 173 8.0 16.1 0.23 0.53 0.53 85 1013.2
20260507170527 12 170 6.4 17.7 0.18 0.48 0.48 87 1012.9
20260507165527 12 159 3.2 9.7 0.13 0.43 0.43 87 1013.0
20260507164518 12 160 3.2 9.7 0.10 0.36 0.36 86 1012.8
20260507163526 13 162 4.8 9.7 0.10 0.30 0.30 87 1012.5
20260507162520 13 149 3.2 8.0 0.15 0.30 0.30 87 1012.4
20260507161527 12 163 3.2 8.0 0.23 0.30 0.30 87 1012.4
20260507160519 13 172 1.6 8.0 0.23 0.30 0.30 87 1012.2
20260507155528 13 189 3.2 6.4 0.23 0.28 0.28 87 1012.2
20260507154519 13 212 1.6 8.0 0.20 0.25 0.25 85 1012.2
20260507153527 13 181 0.0 6.4 0.13 0.20 0.20 83 1012.2
20260507152519 14 270 1.6 6.4 0.08 0.13 0.13 77 1011.9
20260507151527 15 312 1.6 6.4 0.00 0.08 0.08 68 1011.9
20260507150519 16 157 0.0 3.2 0.00 0.08 0.08 64 1011.7
20260507145528 16 190 1.6 4.8 0.00 0.08 0.08 62 1011.6
20260507144527 16 157 3.2 8.0 0.00 0.08 0.08 60 1011.5
20260507143519 16 146 1.6 4.8 0.00 0.08 0.08 59 1011.5
20260507142527 16 143 4.8 9.7 0.00 0.08 0.08 59 1011.5
20260507141520 17 144 3.2 6.4 0.00 0.08 0.08 59 1011.6
20260507140528 17 142 4.8 9.7 0.00 0.08 0.08 57 1011.5
20260507135527 17 165 6.4 12.9 0.00 0.08 0.08 57 1011.6
20260507134528 17 147 6.4 17.7 0.00 0.08 0.08 59 1011.7
20260507133520 17 148 6.4 12.9 0.00 0.08 0.08 58 1011.7
20260507132527 17 141 6.4 16.1 0.03 0.08 0.08 56 1011.7
20260507131528 17 157 4.8 14.5 0.03 0.08 0.08 59 1011.9
20260507130527 17 139 4.8 11.3 0.05 0.08 0.08 61 1012.0
20260507125519 16 153 4.8 9.7 0.08 0.08 0.08 64 1011.9
20260507124527 16 152 4.8 8.0 0.05 0.05 0.05 67 1011.9
20260507123520 16 151 1.6 6.4 0.05 0.05 0.05 73 1011.9
20260507122520 16 167 3.2 9.7 0.05 0.05 0.05 71 1012.1
20260507121536 17 168 3.2 11.3 0.03 0.03 0.03 63 1012.0
20260507120528 17 170 1.6 6.4 0.03 0.03 0.03 55 1012.0
20260507115520 18 157 1.6 8.0 0.00 0.00 0.00 48 1011.9
20260507114527 18 163 0.0 3.2 0.00 0.00 0.00 45 1011.9
20260507113519 19 212 1.6 4.8 0.00 0.00 0.00 44 1011.9
20260507112527 19 209 1.6 4.8 0.00 0.00 0.00 45 1012.0
20260507111520 18 0.0 3.2 0.00 0.00 0.00 46 1012.0
20260507110528 18 260 0.0 3.2 0.00 0.00 0.00 47 1012.0
20260507105519 18 358 0.0 3.2 0.00 0.00 0.00 46 1012.0
20260507104527 18 355 0.0 4.8 0.00 0.00 0.00 47 1012.0
20260507103519 18 1 1.6 6.4 0.00 0.00 0.00 47 1012.1
20260507102528 18 154 1.6 4.8 0.00 0.00 0.00 45 1012.3
20260507101519 18 72 0.0 3.2 0.00 0.00 0.00 45 1012.3
20260507100527 18 357 0.0 8.0 0.00 0.00 0.00 46 1012.2
20260507095528 17 27 3.2 6.4 0.00 0.00 0.00 47 1012.2
20260507094520 17 315 1.6 6.4 0.00 0.00 0.00 47 1012.1
20260507093528 18 338 1.6 6.4 0.00 0.00 0.00 45 1012.0
20260507092519 17 11 1.6 4.8 0.00 0.00 0.00 47 1012.0
20260507091527 17 335 1.6 8.0 0.00 0.00 0.00 47 1012.0
20260507090519 17 350 1.6 6.4 0.00 0.00 0.00 47 1011.9
20260507085520 18 350 1.6 6.4 0.00 0.00 0.00 46 1011.7
20260507084528 17 338 1.6 4.8 0.00 0.00 0.00 47 1011.6
20260507083520 17 352 1.6 4.8 0.00 0.00 0.00 45 1011.5
20260507082527 17 236 1.6 4.8 0.00 0.00 0.00 45 1011.4
20260507081536 17 12 0.0 3.2 0.00 0.00 0.00 45 1011.2
20260507080528 17 330 1.6 4.8 0.00 0.00 0.00 46 1011.1
20260507075520 17 333 1.6 4.8 0.00 0.00 0.00 47 1011.0
20260507074528 17 157 1.6 6.4 0.00 0.00 0.00 49 1011.1
20260507073519 16 99 1.6 4.8 0.00 0.00 0.00 50 1011.0
20260507072528 16 128 1.6 6.4 0.00 0.00 0.00 50 1011.0
20260507071519 16 208 1.6 4.8 0.00 0.00 0.00 50 1010.8
20260507070527 16 195 1.6 11.3 0.00 0.00 0.00 50 1010.6
20260507065520 15 40 1.6 6.4 0.00 0.00 0.00 51 1010.6
20260507064528 15 282 1.6 6.4 0.00 0.00 0.00 51 1010.7
20260507063520 15 345 1.6 6.4 0.00 0.00 0.00 52 1010.6
20260507062520 15 194 3.2 6.4 0.00 0.00 0.00 52 1010.4
20260507061520 15 252 1.6 6.4 0.00 0.00 0.00 52 1010.4
20260507060528 15 193 1.6 6.4 0.00 0.00 0.00 52 1010.4
20260507055520 15 349 3.2 9.7 0.00 0.00 0.00 52 1010.1
20260507054527 15 25 3.2 8.0 0.00 0.00 0.00 53 1010.1
20260507053520 15 152 1.6 6.4 0.00 0.00 0.00 54 1009.9
20260507052528 15 358 1.6 4.8 0.00 0.00 0.00 55 1009.8
20260507051527 15 348 1.6 6.4 0.00 0.00 0.00 55 1009.7
20260507050529 15 8 1.6 4.8 0.00 0.00 0.00 54 1009.6
20260507045520 15 288 1.6 4.8 0.00 0.00 0.00 54 1009.4
20260507044528 15 202 1.6 4.8 0.00 0.00 0.00 56 1009.1
20260507043521 15 161 3.2 6.4 0.00 0.00 0.00 56 1008.9
20260507042528 15 242 1.6 4.8 0.00 0.00 0.00 57 1008.9
20260507041520 15 327 3.2 6.4 0.00 0.00 0.00 57 1008.8
20260507040528 15 272 3.2 6.4 0.00 0.00 0.00 58 1008.6
20260507035536 15 2 3.2 6.4 0.00 0.00 0.00 57 1008.4
20260507034520 15 37 3.2 8.0 0.00 0.00 0.00 57 1008.5
20260507033528 15 154 3.2 4.8 0.00 0.00 0.00 56 1008.4
20260507032520 15 324 1.6 6.4 0.00 0.00 0.00 56 1008.4
20260507031528 15 296 3.2 4.8 0.00 0.00 0.00 58 1008.4
20260507030521 15 184 3.2 6.4 0.00 0.00 0.00 58 1008.2
20260507025528 15 12 1.6 6.4 0.00 0.00 0.00 58 1008.2
20260507024520 15 315 1.6 6.4 0.00 0.00 0.00 58 1008.1
20260507023528 15 321 3.2 9.7 0.00 0.00 0.00 57 1008.2
20260507022520 15 222 3.2 6.4 0.00 0.00 0.00 57 1008.1
20260507021519 15 332 1.6 6.4 0.00 0.00 0.00 57 1008.1
20260507020521 15 301 3.2 8.0 0.00 0.00 0.00 57 1008.0
20260507015528 15 249 1.6 6.4 0.00 0.00 0.00 56 1008.1
20260507014520 15 320 1.6 6.4 0.00 0.00 0.00 56 1008.1
20260507013528 15 300 1.6 8.0 0.00 0.00 0.00 56 1007.9
20260507012520 15 311 3.2 9.7 0.00 0.00 0.00 55 1007.8
20260507011528 15 312 3.2 9.7 0.00 0.00 0.00 56 1008.0
20260507010520 16 306 1.6 8.0 0.00 0.00 0.00 56 1007.7
20260507005521 16 318 3.2 6.4 0.00 0.00 0.00 56 1007.7
20260507004529 16 336 3.2 6.4 0.00 0.00 0.00 56 1007.7
20260507003521 16 327 1.6 11.3 0.00 0.00 0.00 56 1007.6
20260507002529 16 303 4.8 9.7 0.00 0.00 0.00 57 1007.6
20260507001521 16 317 3.2 8.0 0.00 0.00 0.00 58 1007.5
20260507000529 16 327 3.2 9.7 0.00 0.00 0.00 60 1007.4
20260506235529 16 320 3.2 6.4 0.00 0.00 0.00 62 1007.3
20260506234521 16 309 3.2 9.7 0.00 0.00 0.00 63 1007.2
20260506233529 16 319 1.6 6.4 0.00 0.00 0.00 63 1007.0
20260506232521 16 333 1.6 6.4 0.00 0.00 0.00 63 1006.9
20260506231529 15 45 1.6 3.2 0.00 0.00 0.00 62 1006.9
20260506230520 15 71 1.6 4.8 0.00 0.00 0.00 65 1006.8
20260506225529 15 130 1.6 4.8 0.00 0.00 0.00 65 1006.8
20260506224530 15 67 3.2 6.4 0.00 0.00 0.00 64 1006.6
20260506223521 15 80 1.6 3.2 0.00 0.00 0.00 63 1006.3
20260506222529 15 55 1.6 6.4 0.00 0.00 0.00 63 1006.1
20260506221521 16 9 1.6 3.2 0.00 0.00 0.00 62 1005.9
20260506220528 16 96 1.6 4.8 0.00 0.00 0.00 59 1005.6
20260506215529 16 159 4.8 8.0 0.00 0.00 0.00 59 1005.5
20260506214521 17 137 1.6 3.2 0.00 0.00 0.00 58 1005.2
20260506213529 17 157 4.8 11.3 0.00 0.00 0.00 57 1005.2
20260506212520 17 164 6.4 11.3 0.00 0.00 0.00 58 1004.9
20260506211529 17 162 6.4 11.3 0.00 0.00 0.00 57 1004.9
20260506210520 17 172 8.0 16.1 0.00 0.00 0.00 57 1004.7
20260506205529 17 161 8.0 19.3 0.00 0.00 0.00 57 1004.6
20260506204521 17 165 6.4 17.7 0.00 0.00 0.00 56 1004.4
20260506203528 18 160 6.4 16.1 0.00 0.00 0.00 55 1004.4
20260506202521 18 171 8.0 17.7 0.00 0.00 0.00 55 1004.4
20260506201520 18 155 8.0 17.7 0.00 0.00 0.00 54 1004.3
20260506200521 18 141 4.8 14.5 0.00 0.00 0.00 53 1004.3
20260506195529 18 168 8.0 22.5 0.00 0.00 0.00 54 1004.2
20260506194521 18 135 8.0 14.5 0.00 0.00 0.00 55 1004.1
20260506193528 18 134 8.0 17.7 0.00 0.00 0.00 54 1003.9
20260506192521 18 141 9.7 19.3 0.00 0.00 0.00 54 1004.0
20260506191529 19 150 6.4 20.9 0.00 0.00 0.00 53 1003.9
20260506190520 19 175 8.0 19.3 0.00 0.00 0.00 53 1003.8